Regional Weather Roundup
Issued by NWS

Home | Current Version | Previous Version | Graphics & Text | Print | Product List | Glossary Off
Versions: 1 2 3 4 5 6 7 8 9 10 11 12 13 14 15 16 17 18 19 20 21 22 23 24 25 26 27 28 29 30 31 32 33 34 35 36 37 38 39 40 41 42 43 44 45 46 47 48 49 50

000
ASUS43 KDMX 291401
RWRIA

WEATHER ROUNDUP FOR IOWA
NATIONAL WEATHER SERVICE DES MOINES IA
900 AM CDT WED MAR 29 2017

NOTE: "FAIR" INDICATES FEW OR NO CLOUDS BELOW 12,000 FEET WITH NO
SIGNIFICANT WEATHER AND/OR OBSTRUCTIONS TO VISIBILITY.

* - THESE STATIONS ARE NOT NWS STATIONS...THUS NOT UNDER NWS
QUALITY CONTROL.  THEY ALSO DO NOT REPORT WEATHER SUCH
AS PRECIPITATION OR FOG.

IAZ001>003-012>014-020>022-031>034-043>046-291500-
   NORTHWEST IOWA

CITY           SKY/WX    TMP DP  RH WIND       PRES   REMARKS
CARROLL *      CLOUDY    43  43 100 E16       30.07S FOG
CHEROKEE *     LGT RAIN  43  43  99 NE9       30.12F
DENISON *      CLOUDY    43  39  87 E16G23    30.06F
LE MARS *      CLOUDY    45  43  93 NE9       30.13S FOG
ORANGE CITY *  LGT RAIN  43  43 100 E8        30.13F
SHELDON *      CLOUDY    45  41  87 E10       30.13F
SIOUX CITY     LGT RAIN  45  44  97 E13       30.10S
SPENCER        RAIN      44  40  85 E10       30.16R FOG
STORM LAKE *   CLOUDY    43  41  93 E14       30.10F
$$

IAZ055>058-069>071-079>083-090>094-291500-
   SOUTHWEST IOWA

CITY           SKY/WX    TMP DP  RH WIND       PRES   REMARKS
ATLANTIC *     LGT RAIN  43  43 100 NE15G23   30.02S
AUDUBON *      LGT RAIN  43  39  87 E13G22    30.05S
CLARINDA *     CLOUDY    46  45  93 NE13G20   29.99S FOG
COUNCIL BLFS * MIX PCPN  43  43 100 NE17      30.00S
CRESTON *      CLOUDY    43  43 100 E21G28    30.00S FOG
HARLAN  *      LGT RAIN  43  43 100 E20G25    30.06S
LAMONI         LGT RAIN  44  42  93 E12G22    29.99F FOG
RED OAK *      MIX PCPN  45  43  93 NE13G21   30.00S
SHENANDOAH *   RAIN      46  45  93 NE16G24   29.97F
$$

IAZ047>049-059>061-072>074-084-291500-
   CENTRAL IOWA

CITY           SKY/WX    TMP DP  RH WIND       PRES   REMARKS
AMES           LGT RAIN  41  41 100 E15G21    30.10F FOG
ANKENY *       LGT RAIN  41  41 100 NE14      30.08F
BOONE *        MIX PCPN  41  41 100 E17       30.09R
CHARITON *     CLOUDY    41  41 100 E20G26    30.03R
DES MOINES     LGT RAIN  43  40  89 E15       30.06S FOG
GRINNELL*      LGT RAIN  40  39  95 E15G22    30.10F WCI  32
KNOXVILLE *    CLOUDY    41  39  93 E16       30.03F FOG
MARSHALLTOWN   LGT RAIN  40  39  97 E18       30.11F FOG     WCI  31
NEWTON *       CLOUDY    41  39  93 E15       30.08F FOG
PELLA *        LGT RAIN  40  39  95 E13G21    30.08S WCI  33
PERRY *        LGT RAIN  43  41  94 NE14G21   30.08R
$$

IAZ004>006-015-016-023>025-035-036-291500-
   NORTH CENTRAL IOWA

CITY           SKY/WX    TMP DP  RH WIND       PRES   REMARKS
ALGONA *       LGT RAIN  45  39  81 E14       30.16S
CLARION *      CLOUDY    41  41 100 E18       30.13S
ESTHERVILLE    CLOUDY    41  40  96 NE7       30.17R
FORT DODGE *   CLOUDY    43  37  81 NE14      30.12F
MASON CITY     LGT RAIN  41  35  79 E8        30.19S
FOREST CITY *  CLOUDY    41  36  81 E10       30.18R
WEBSTER CITY * CLOUDY    43  39  87 E17       30.10S
IOWA FALLS *   CLOUDY    40  38  91 E15       30.14F FOG     WCI  32
$$

IAZ007>011-017>019-026>030-037>042-050>054-066-291500-
   NORTHEAST IOWA

CITY           SKY/WX    TMP DP  RH WIND       PRES   REMARKS
CEDAR RAPIDS   CLOUDY    41  40  96 E14       30.14F FOG
CHARLES CITY * CLOUDY    41  39  93 E9        30.19F
CLINTON *      CLOUDY    41  39  93 NE12      30.21R
DECORAH *      CLOUDY    41  37  87 E9        30.21R
DUBUQUE        CLOUDY    40  36  86 E9        30.22R WCI  34
MONTICELLO *   CLOUDY    41  39  93 E12       30.18F
OELWEIN *      CLOUDY    39  39 100 E9        30.18F WCI  33
WATERLOO       CLOUDY    40  37  89 E13       30.16F WCI  32
$$

IAZ064-065-067-068-078-291500-
   EAST CENTRAL IOWA

CITY           SKY/WX    TMP DP  RH WIND       PRES   REMARKS
DAVENPORT      CLOUDY    41  39  93 E13       30.21R FOG
IOWA CITY      CLOUDY    44  41  89 E9        30.17F FOG
MUSCATINE *    CLOUDY    45  41  87 E14G22    30.16F
QUAD CITIES    CLOUDY    43  39  86 E10       30.21R FOG
$$

IAZ062-063-075>077-085>089-095>099-291500-
   SOUTHEAST IOWA

CITY           SKY/WX    TMP DP  RH WIND       PRES   REMARKS
BURLINGTON     CLOUDY    44  43  96 E10       30.14R FOG
FAIRFIELD *    CLOUDY    41  41 100 E16       30.09F FOG
FORT MADISON * RAIN      45  43  93 E6        30.16R
KEOKUK *       LGT RAIN  43  43 100 E10       30.14R
OSKALOOSA *    LGT RAIN  40  39  96 E18G26    30.08F WCI  31
CENTERVILLE *  LGT RAIN  41  41 100 E18G26    30.05R
OTTUMWA        LGT RAIN  41  41 100 E21G28    30.06F FOG
WASHINGTON *   CLOUDY    43  43 100 E13       30.17R
$$

ABBREVIATIONS USED IN REMARKS
   TC - TEMPERATURES IN CELSIUS
  WCI - WIND CHILL INDEX
   HX - HEAT INDEX
  VSB - VISIBILITY
$$





USA.gov is the U.S. government's official web portal to all federal, state and local government web resources and services.